Date String (YYYY-MM-DD hh:mm:ss) UTC,Instrument flags,absolute air pressure of the measurement (hPa),sample flow rate (lpm),inlet stack bypass flow (lpm),air temperature of the measurement (°C),ambient temperature measured by the external sensor (°C),aerosol sample conditioner tube jacket temperature (°C),OPC LED temperature (°C),internal box temperature (°C),relative humidity of the measurement (%),span deviation,mass concentration of particles derived from Lorenz-Mie calculation of OPC scattering (μg/m³),mass concentration of particles derived from Lorenz-Mie calculation of OPC scattering (μg/m³),mass concentration of particles derived from Lorenz-Mie calculation of OPC scattering (μg/m³)
DateTimeUTC,F1_M11,P_M11,Q1_M11,Q2_M11,T1_M11,T2_M11,T3_M11,T4_M11,T5_M11,U1_M11,ZSPAN_M11,X0_M11,X2_M11,X1_M11
2023-08-30 20:00:00,SystemResetWarning,0830.3,5.00,000.00,027.5,023.6,000.0,035.4,027.7,33.7,-000.2,0018.13,0006.10,0005.20
2023-08-30 20:01:00,SystemResetWarning,0830.2,5.00,000.00,027.5,023.8,000.0,035.4,027.8,33.3,0000.1,0018.95,0006.16,0005.21
2023-08-30 20:02:00,SystemResetWarning,0830.2,4.99,000.00,027.4,023.0,000.0,035.3,027.4,34.0,0000.3,0018.05,0006.20,0005.21
2023-08-30 20:03:00,SystemResetWarning,0830.3,5.00,000.00,027.3,022.5,000.0,035.2,027.3,33.7,0000.3,0019.50,0006.21,0005.22
2023-08-30 20:04:00,SystemResetWarning,0830.2,5.02,000.00,027.2,022.6,000.0,035.2,027.3,33.2,0000.3,0020.55,0006.20,0005.21
2023-08-30 20:05:00,SystemResetWarning,0830.1,5.00,000.00,027.1,022.9,000.0,035.2,027.3,34.5,0000.9,0019.44,0006.18,0005.20
2023-08-30 20:06:00,SystemResetWarning,0830.2,5.00,000.00,027.1,023.4,000.0,035.2,027.5,34.3,0000.9,0019.00,0006.17,0005.21
2023-08-30 20:07:00,SystemResetWarning,0830.1,5.00,000.00,027.1,023.8,000.0,035.1,027.7,34.3,0000.9,0019.30,0006.20,0005.22
2023-08-30 20:08:00,SystemResetWarning,0830.1,5.00,000.00,027.1,024.2,000.0,035.1,027.8,33.5,0000.0,0019.77,0006.34,0005.27
2023-08-30 20:09:00,SystemResetWarning,0830.1,4.99,000.00,027.1,023.7,000.0,035.1,027.6,33.1,0000.0,0021.41,0006.49,0005.29
2023-08-30 20:10:00,SystemResetWarning,0830.0,4.99,000.00,027.0,022.8,000.0,035.0,027.3,32.7,0001.6,0021.33,0006.53,0005.31
2023-08-30 20:11:00,SystemResetWarning,0830.0,5.03,000.00,026.9,022.6,000.0,034.9,027.2,33.1,0002.1,0020.39,0006.55,0005.35
2023-08-30 20:12:00,SystemResetWarning,0830.0,4.99,000.00,026.8,022.9,000.0,034.9,027.2,33.8,0001.5,0019.59,0006.52,0005.36
2023-08-30 20:13:00,SystemResetWarning,0830.1,4.99,000.00,026.8,023.3,000.0,034.9,027.4,34.4,0001.5,0019.83,0006.50,0005.36
2023-08-30 20:14:00,SystemResetWarning,0830.0,5.01,000.00,026.8,023.8,000.0,034.9,027.6,35.4,0001.2,0018.38,0006.47,0005.35
2023-08-30 20:15:00,SystemResetWarning,0830.0,4.99,000.00,027.0,023.8,000.0,034.9,027.7,33.8,0001.0,0017.70,0006.50,0005.36
2023-08-30 20:16:00,SystemResetWarning,0830.0,5.00,000.00,027.0,022.9,000.0,034.8,027.4,33.2,0001.0,0017.71,0006.52,0005.37
2023-08-30 20:17:00,SystemResetWarning,0830.0,5.02,000.00,027.0,022.5,000.0,034.7,027.2,33.5,0001.3,0017.45,0006.56,0005.37
2023-08-30 20:18:00,SystemResetWarning,0829.9,4.99,000.00,027.0,022.7,000.0,034.7,027.3,33.9,0001.1,0017.62,0006.62,0005.37
2023-08-30 20:19:00,SystemResetWarning,0829.9,5.00,000.00,026.9,023.1,000.0,034.8,027.3,34.1,0000.6,0017.17,0006.60,0005.36
2023-08-30 20:20:00,SystemResetWarning,0829.9,5.00,000.00,026.9,023.5,000.0,034.8,027.5,32.4,0000.5,0015.99,0006.54,0005.36
2023-08-30 20:21:00,SystemResetWarning,0829.9,5.01,000.00,026.9,023.9,000.0,034.8,027.7,31.2,0000.2,0015.70,0006.52,0005.34
2023-08-30 20:22:00,SystemResetWarning,0830.0,5.01,000.00,027.0,023.9,000.0,034.8,027.6,32.4,0000.4,0015.55,0006.57,0005.34
2023-08-30 20:23:00,SystemResetWarning,0829.9,4.99,000.00,026.9,022.9,000.0,034.8,027.2,33.3,0001.0,0016.11,0006.61,0005.34
2023-08-30 20:24:00,SystemResetWarning,0829.8,4.99,000.00,026.7,022.1,000.0,034.7,026.9,33.6,0001.5,0016.55,0006.61,0005.33
2023-08-30 20:25:00,SystemResetWarning,0829.8,5.01,000.00,026.7,022.1,000.0,034.7,027.0,34.5,0001.7,0017.13,0006.62,0005.32
2023-08-30 20:26:00,SystemResetWarning,0829.8,4.99,000.00,026.6,022.4,000.0,034.7,027.0,34.8,0001.8,0017.64,0006.64,0005.32
2023-08-30 20:27:00,SystemResetWarning,0829.8,5.01,000.00,026.6,022.9,000.0,034.7,027.2,34.1,0001.9,0017.38,0006.65,0005.31
2023-08-30 20:28:00,SystemResetWarning,0829.8,4.98,000.00,026.7,023.4,000.0,034.7,027.4,33.6,0001.5,0017.58,0006.64,0005.30
2023-08-30 20:29:00,SystemResetWarning,0829.8,5.00,000.00,026.7,023.8,000.0,034.7,027.6,33.9,0001.5,0018.10,0006.61,0005.29
2023-08-30 20:30:00,SystemResetWarning,0829.7,5.00,000.00,026.8,024.2,000.0,034.7,027.7,32.8,0001.6,0019.62,0006.61,0005.29
2023-08-30 20:31:00,SystemResetWarning,0829.7,4.99,000.00,026.8,023.6,000.0,034.6,027.4,33.6,0002.0,0020.72,0006.60,0005.28
2023-08-30 20:32:00,SystemResetWarning,0829.6,4.99,000.00,026.7,022.7,000.0,034.6,027.1,34.7,0001.7,0022.41,0006.59,0005.29
2023-08-30 20:33:00,SystemResetWarning,0829.7,5.05,000.00,026.7,022.7,000.0,034.6,027.2,34.7,0001.6,0022.80,0006.62,0005.30
2023-08-30 20:34:00,SystemResetWarning,0829.7,4.96,000.00,026.8,023.0,000.0,034.6,027.3,33.2,0001.4,0022.54,0006.62,0005.31
2023-08-30 20:35:00,SystemResetWarning,0829.7,5.01,000.00,026.8,023.4,000.0,034.6,027.4,32.5,0001.1,0022.09,0006.59,0005.31
2023-08-30 20:36:00,SystemResetWarning,0829.7,5.01,000.00,026.9,023.8,000.0,034.6,027.6,32.3,0000.5,0021.89,0006.59,0005.30
2023-08-30 20:37:00,SystemResetWarning,0829.7,5.00,000.00,027.0,024.1,000.0,034.7,027.7,32.6,0000.6,0021.84,0006.56,0005.29
2023-08-30 20:38:00,SystemResetWarning,0829.7,4.99,000.00,027.0,023.5,000.0,034.6,027.4,32.5,0001.2,0022.13,0006.52,0005.29
2023-08-30 20:39:00,SystemResetWarning,0829.7,5.00,000.00,026.9,022.4,000.0,034.6,027.1,32.3,0001.1,0022.50,0006.50,0005.29
2023-08-30 20:40:00,SystemResetWarning,0829.7,5.01,000.00,026.8,022.1,000.0,034.6,027.0,30.8,0001.5,0022.14,0006.45,0005.30
2023-08-30 20:41:00,SystemResetWarning,0829.7,5.01,000.00,026.7,022.3,000.0,034.6,027.0,30.7,0001.9,0020.36,0006.44,0005.30
2023-08-30 20:42:00,SystemResetWarning,0829.6,5.00,000.00,026.6,022.7,000.0,034.6,027.1,30.9,0001.6,0019.25,0006.44,0005.30
2023-08-30 20:43:00,SystemResetWarning,0829.6,5.00,000.00,026.6,023.2,000.0,034.6,027.3,31.3,0001.8,0017.37,0006.38,0005.28
2023-08-30 20:44:00,SystemResetWarning,0829.6,5.00,000.00,026.6,023.7,000.0,034.6,027.5,32.0,0001.7,0016.40,0006.32,0005.26
2023-08-30 20:45:00,SystemResetWarning,0829.6,5.00,000.00,026.7,024.2,000.0,034.6,027.7,30.1,0001.6,0017.06,0006.28,0005.24
2023-08-30 20:46:00,SystemResetWarning,0829.6,4.99,000.00,026.7,024.1,000.0,034.6,027.6,29.9,0001.8,0017.60,0006.33,0005.23
2023-08-30 20:47:00,SystemResetWarning,0829.6,4.99,000.00,026.6,023.1,000.0,034.6,027.2,31.2,0002.0,0018.19,0006.31,0005.23
2023-08-30 20:48:00,SystemResetWarning,0829.5,5.01,000.00,026.6,022.7,000.0,034.5,027.1,31.2,0002.1,0017.27,0006.35,0005.26
2023-08-30 20:49:00,SystemResetWarning,0829.5,5.01,000.00,026.5,022.8,000.0,034.5,027.2,31.2,0001.5,0017.55,0006.33,0005.25
2023-08-30 20:50:00,SystemResetWarning,0829.5,5.00,000.00,026.4,023.2,000.0,034.5,027.3,31.4,0001.7,0018.02,0006.35,0005.22
2023-08-30 20:51:00,SystemResetWarning,0829.5,5.00,000.00,026.5,023.6,000.0,034.5,027.4,31.8,0001.6,0018.34,0006.38,0005.21
2023-08-30 20:52:00,SystemResetWarning,0829.5,5.01,000.00,026.5,024.0,000.0,034.5,027.6,31.4,0001.2,0018.10,0006.34,0005.20
2023-08-30 20:53:00,SystemResetWarning,0829.5,4.98,000.00,026.5,023.9,000.0,034.5,027.5,31.8,0001.4,0017.96,0006.31,0005.19
2023-08-30 20:54:00,SystemResetWarning,0829.4,4.99,000.00,026.4,022.9,000.0,034.5,027.1,30.9,0001.0,0018.26,0006.33,0005.19
2023-08-30 20:55:00,SystemResetWarning,0829.4,5.01,000.00,026.3,022.5,000.0,034.4,027.1,32.1,0001.2,0018.85,0006.30,0005.17
2023-08-30 20:56:00,SystemResetWarning,0829.4,5.02,000.00,026.3,022.8,000.0,034.4,027.2,31.6,0001.1,0018.34,0006.22,0005.13
2023-08-30 20:57:00,SystemResetWarning,0829.4,4.99,000.00,026.2,023.2,000.0,034.4,027.3,32.1,0001.0,0017.47,0006.12,0005.10
2023-08-30 20:58:00,SystemResetWarning,0829.4,5.00,000.00,026.3,023.6,000.0,034.4,027.4,31.4,0000.9,0017.41,0006.17,0005.09
2023-08-30 20:59:00,SystemResetWarning,0829.4,4.99,000.00,026.3,023.4,000.0,034.4,027.3,32.4,0000.7,0018.57,0006.16,0005.06
